{"data":{"norad_id":62439,"epoch":"2026-05-24T23:23:16.557216Z","epoch_age_seconds":87906,"freshness":"FRESH","line1":"1 62439U 24251H   26144.97449719  .00011134  00000+0  38738-3 0  9996","line2":"2 62439  53.1595 341.2785 0000905 106.8469 253.2631 15.30207652 79629","mean_motion":15.30207652,"eccentricity":9.05e-5,"inclination_deg":53.1595,"raan_deg":341.2785,"arg_perigee_deg":106.8469,"mean_anomaly_deg":253.2631,"bstar":0.00038738,"rev_number":7962,"period_min":94.10487512057,"perigee_km":474.57199572722,"apogee_km":475.81244831641,"semimajor_km":6853.3292220218,"source":"CELESTRAK","updated_at":"2026-05-25T13:38:19.658433Z"}}